EW1335 Weather Reports


Display with metric or nautical units.
time (UTC)temp
F
wind
direction
speed
MPH
gust
MPH
rain 1hr
in
rain 24hr
in
rain mn
in
humidity
%
barometer
mb
20260504045948 44 293 0.0 4.0 0.00 0.03 0.00 95 1007.9
20260504044948 44 125 1.0 2.0 0.00 0.03 0.00 95 1007.9
20260504044448 44 169 0.0 0.0 0.00 0.03 0.00 95 1008.1
20260504043949 44 169 0.0 0.0 0.00 0.03 0.00 95 1008.1
20260504043448 44 169 0.0 2.0 0.00 0.03 0.00 94 1008.1
20260504042448 44 99 0.0 3.0 0.00 0.03 0.00 94 1008.0
20260504041949 44 101 0.0 2.0 0.00 0.03 0.00 94 1008.0
20260504041448 44 103 0.0 2.0 0.00 0.03 0.00 94 1008.0
20260504040948 44 178 2.0 3.0 0.00 0.03 0.00 94 1008.0
20260504040447 44 240 1.0 4.0 0.00 0.03 0.00 94 1008.0
20260504035949 44 211 0.0 4.0 0.01 0.03 0.00 94 1007.9
20260504035447 43 134 0.0 3.0 0.01 0.03 0.03 94 1008.0
20260504034947 43 45 0.0 3.0 0.01 0.03 0.03 94 1008.0
20260504034447 43 150 0.0 1.0 0.01 0.03 0.03 94 1008.0
20260504033947 43 194 0.0 2.0 0.01 0.03 0.03 94 1008.0
20260504033447 43 219 0.0 3.0 0.02 0.03 0.03 93 1008.0
20260504032949 43 326 0.0 3.0 0.02 0.03 0.03 93 1008.1
20260504032447 43 84 1.0 3.0 0.02 0.03 0.03 93 1008.0
20260504031947 43 137 0.0 7.0 0.02 0.03 0.03 92 1008.1
20260504031447 43 224 0.0 7.0 0.02 0.03 0.03 92 1008.1
20260504030947 43 25 1.0 4.0 0.02 0.03 0.03 91 1008.2
20260504030447 43 122 1.0 4.0 0.02 0.03 0.03 91 1008.2
20260504025947 43 157 1.0 4.0 0.01 0.02 0.02 91 1008.2
20260504025448 43 176 1.0 2.0 0.01 0.02 0.02 90 1008.0
20260504024946 43 122 0.0 5.0 0.01 0.02 0.02 90 1008.0
20260504022948 43 97 0.0 1.0 0.01 0.01 0.01 90 1008.2
20260504022447 43 89 0.0 0.0 0.01 0.01 0.01 90 1008.3
20260504021946 43 89 0.0 1.0 0.01 0.01 0.01 89 1008.3
20260504021447 44 89 0.0 1.0 0.01 0.01 0.01 89 1008.5
20260504020948 44 89 0.0 0.0 0.01 0.01 0.01 88 1008.6
20260504020446 44 91 0.0 1.0 0.01 0.01 0.01 87 1008.6
20260504015946 45 91 0.0 1.0 0.01 0.01 0.01 85 1008.5
20260504015446 45 115 0.0 1.0 0.01 0.01 0.01 82 1008.6
20260504014948 46 169 0.0 3.0 0.01 0.01 0.01 77 1008.8
20260504014446 47 221 0.0 6.0 0.00 0.00 0.00 71 1008.6
20260504013946 47 64 0.0 6.0 0.00 0.00 0.00 66 1008.7
20260504013446 47 255 1.0 4.0 0.00 0.00 0.00 63 1008.6
20260504012947 48 53 4.0 4.0 0.00 0.00 0.00 63 1008.6
20260504012446 48 109 0.0 3.0 0.00 0.00 0.00 59 1008.5
20260504011446 48 39 0.0 9.0 0.00 0.00 0.00 57 1008.4
20260504010947 48 337 0.0 9.0 0.00 0.00 0.00 55 1008.4
20260504005946 48 75 1.0 5.0 0.00 0.00 0.00 54 1008.3
20260504005446 48 139 0.0 5.0 0.00 0.00 0.00 53 1008.3
20260504004445 48 288 1.0 8.0 0.00 0.00 0.00 52 1008.2
20260504003446 48 12 1.0 2.0 0.00 0.00 0.00 52 1008.3
20260504002947 48 59 0.0 3.0 0.00 0.00 0.00 51 1008.2
20260504002446 48 59 0.0 5.0 0.00 0.00 0.00 50 1008.2
20260504001945 48 164 0.0 5.0 0.00 0.00 0.00 50 1008.2
20260504001445 48 262 0.0 6.0 0.00 0.00 0.00 49 1008.2
20260504000945 48 32 4.0 11.0 0.00 0.00 0.00 49 1008.2
20260504000445 48 279 2.0 11.0 0.00 0.00 0.00 48 1008.2
20260503235945 49 58 1.0 5.0 0.00 0.00 0.00 48 1008.1
20260503235446 49 260 0.0 5.0 0.00 0.00 0.00 48 1008.1
20260503234945 49 248 0.0 5.0 0.00 0.00 0.00 49 1008.2
20260503234445 49 291 4.0 6.0 0.00 0.00 0.00 48 1008.1
20260503233945 49 155 1.0 6.0 0.00 0.00 0.00 49 1008.1
20260503233445 49 295 4.0 7.0 0.00 0.00 0.00 48 1008.1
20260503232945 49 270 0.0 7.0 0.00 0.00 0.00 49 1008.1
20260503232445 49 225 4.0 4.0 0.00 0.00 0.00 47 1008.0
20260503231945 49 127 0.0 4.0 0.00 0.00 0.00 47 1008.2
20260503231446 49 244 0.0 6.0 0.00 0.00 0.00 48 1008.1
20260503230444 49 223 2.0 8.0 0.00 0.00 0.00 48 1008.1
20260503225945 49 143 0.0 8.0 0.00 0.00 0.00 46 1008.2
20260503224444 50 113 2.0 6.0 0.00 0.00 0.00 47 1008.2
20260503223945 50 284 2.0 5.0 0.00 0.00 0.00 46 1008.2
20260503223445 51 309 4.0 8.0 0.00 0.00 0.00 46 1008.3
20260503222444 52 25 4.0 9.0 0.00 0.00 0.00 43 1008.3
20260503221944 52 200 2.0 9.0 0.00 0.00 0.00 42 1008.4
20260503221444 52 237 3.0 8.0 0.00 0.00 0.00 41 1008.4
20260503220944 53 233 3.0 11.0 0.00 0.00 0.00 42 1008.4
20260503220444 53 28 5.0 11.0 0.00 0.00 0.00 41 1008.3
20260503215445 53 336 4.0 13.0 0.00 0.00 0.00 42 1008.4
20260503214944 53 211 3.0 13.0 0.00 0.00 0.00 42 1008.5
20260503214444 53 258 3.0 10.0 0.00 0.00 0.00 42 1008.5
20260503213444 53 237 2.0 9.0 0.00 0.00 0.00 40 1008.4
20260503212944 53 10 1.0 12.0 0.00 0.00 0.00 41 1008.4
20260503212444 52 217 7.0 12.0 0.00 0.00 0.00 43 1008.5
20260503211944 52 187 0.0 11.0 0.00 0.00 0.00 41 1008.7
20260503211444 52 295 4.0 11.0 0.00 0.00 0.00 40 1008.5
20260503210444 53 290 4.0 15.0 0.00 0.00 0.00 38 1008.5
20260503205445 53 257 5.0 15.0 0.00 0.00 0.00 40 1008.3
20260503204444 52 301 11.0 15.0 0.00 0.00 0.00 38 1008.5
20260503203444 53 322 8.0 12.0 0.00 0.00 0.00 38 1008.7
20260503202943 53 309 6.0 12.0 0.00 0.00 0.00 37 1008.8
20260503202443 53 26 5.0 11.0 0.00 0.00 0.00 36 1008.7
20260503201944 53 295 6.0 11.0 0.00 0.00 0.00 37 1008.7
20260503201443 53 304 3.0 11.0 0.00 0.00 0.00 38 1008.7
20260503200943 53 319 11.0 11.0 0.00 0.00 0.00 37 1008.8
20260503195443 52 295 9.0 17.0 0.00 0.00 0.00 38 1008.8
20260503194943 52 6 5.0 17.0 0.00 0.00 0.00 39 1008.8
20260503194443 51 179 3.0 10.0 0.00 0.00 0.00 42 1008.8
20260503193943 51 330 4.0 10.0 0.00 0.00 0.00 41 1008.9
20260503192945 54 302 9.0 12.0 0.00 0.00 0.00 38 1009.1
20260503192443 54 259 5.0 9.0 0.00 0.00 0.00 39 1009.2
20260503191943 53 181 2.0 13.0 0.00 0.00 0.00 41 1009.2
20260503191443 52 281 2.0 13.0 0.00 0.00 0.00 40 1009.1
20260503190944 52 345 5.0 13.0 0.00 0.00 0.00 42 1009.3
20260503190443 52 271 5.0 13.0 0.00 0.00 0.00 42 1009.2
20260503185443 52 231 8.0 9.0 0.00 0.00 0.00 43 1009.4
20260503184943 50 11 2.0 9.0 0.00 0.00 0.00 42 1009.3
20260503184443 50 50 3.0 13.0 0.00 0.00 0.00 43 1009.4
20260503182942 50 317 7.0 16.0 0.00 0.00 0.00 45 1009.5
20260503182444 50 322 5.0 16.0 0.00 0.00 0.00 45 1009.6
20260503181942 49 302 3.0 8.0 0.00 0.00 0.00 48 1009.5
20260503180942 49 295 4.0 9.0 0.00 0.00 0.00 46 1009.6
20260503180444 49 215 2.0 8.0 0.00 0.00 0.00 46 1009.6
20260503175442 49 225 6.0 11.0 0.00 0.00 0.00 44 1009.7
20260503174942 49 250 4.0 7.0 0.00 0.00 0.00 43 1009.6
20260503174442 49 358 3.0 9.0 0.00 0.00 0.00 44 1009.8
20260503173943 49 285 6.0 12.0 0.00 0.00 0.00 42 1009.7
20260503173442 49 280 2.0 12.0 0.00 0.00 0.00 44 1009.8
20260503172942 49 281 3.0 10.0 0.00 0.00 0.00 44 1009.8
20260503172442 49 335 6.0 10.0 0.00 0.00 0.00 43 1009.8
20260503171942 48 247 2.0 12.0 0.00 0.00 0.00 45 1009.9
20260503171442 48 210 2.0 12.0 0.00 0.00 0.00 44 1009.9
20260503170942 48 220 2.0 13.0 0.00 0.00 0.00 44 1009.8
20260503170442 49 321 7.0 13.0 0.00 0.00 0.00 44 1009.9
20260503150940 46 255 1.0 13.0 0.00 0.00 0.00 50 1011.0
20260503150442 46 322 8.0 13.0 0.00 0.00 0.00 50 1011.0
20260503130940 43 171 0.0 7.0 0.00 0.00 0.00 69 1011.8
20260503130440 42 271 0.0 7.0 0.00 0.00 0.00 69 1011.7
20260503090438 35 79 0.0 0.0 0.00 0.00 0.00 94 1011.3
20260503081437 35 79 0.0 0.0 0.00 0.00 0.00 94 1011.5
20260503080937 35 79 0.0 0.0 0.00 0.00 0.00 94 1011.6
20260503080437 35 79 0.0 0.0 0.00 0.00 0.00 93 1011.6
20260503072937 36 79 0.0 0.0 0.00 0.00 0.00 92 1011.5
20260503072437 36 79 0.0 0.0 0.00 0.00 0.00 93 1011.5
20260503071938 36 79 0.0 0.0 0.00 0.00 0.00 92 1011.5
20260503071437 36 79 0.0 0.0 0.00 0.00 0.00 92 1011.5
20260503070936 36 79 0.0 0.0 0.00 0.00 0.00 92 1011.6
20260503070436 36 79 0.0 0.0 0.00 0.00 0.00 92 1011.6
20260503054936 36 124 0.0 0.0 0.00 0.00 0.00 92 1011.7
20260503054436 36 123 0.0 0.0 0.00 0.00 0.00 92 1011.8
20260503053935 36 123 0.0 0.0 0.00 0.00 0.00 92 1011.8
20260503053435 36 123 0.0 0.0 0.00 0.00 0.00 91 1011.8
20260503052505 36 121 0.0 1.0 0.00 0.00 0.00 91 1011.9
20260503051935 36 72 0.0 1.0 0.00 0.00 0.00 91 1011.9
20260503051435 36 70 0.0 0.0 0.00 0.00 0.00 91 1012.0
20260503050935 36 69 0.0 0.0 0.00 0.00 0.00 91 1012.1
20260503050505 36 69 0.0 0.0 0.00 0.00 0.00 91 1012.0